Year,Month,Day,Hour,Minute,Value (Times are PST for temperature in C)
2006,07,23,00,00,22.00
2006,07,23,00,01,22.00
2006,07,23,00,02,22.00
2006,07,23,00,03,22.10
2006,07,23,00,04,22.10
2006,07,23,00,05,22.10
2006,07,23,00,06,22.10
2006,07,23,00,07,22.20
2006,07,23,00,08,22.20
2006,07,23,00,09,22.20
2006,07,23,00,10,22.30
2006,07,23,00,11,22.30
2006,07,23,00,12,22.40
2006,07,23,00,13,22.50
2006,07,23,00,14,22.50
2006,07,23,00,15,22.50
2006,07,23,00,16,22.60
2006,07,23,00,17,22.60
2006,07,23,00,18,22.70
2006,07,23,00,19,22.70
2006,07,23,00,20,22.80
2006,07,23,00,21,22.80
2006,07,23,00,22,22.90
2006,07,23,00,23,22.90
2006,07,23,00,24,22.90
2006,07,23,00,25,22.90
2006,07,23,00,26,22.90
2006,07,23,00,27,22.90
2006,07,23,00,28,22.90
2006,07,23,00,29,22.90
2006,07,23,00,30,23.00
2006,07,23,00,31,23.10
2006,07,23,00,32,23.10
2006,07,23,00,33,23.10
2006,07,23,00,34,23.10
2006,07,23,00,35,23.10
2006,07,23,00,36,23.10
2006,07,23,00,37,23.10
2006,07,23,00,38,23.10
2006,07,23,00,39,23.10
2006,07,23,00,40,23.10
2006,07,23,00,41,23.10
2006,07,23,00,42,23.10
2006,07,23,00,43,23.10
2006,07,23,00,44,23.10
2006,07,23,00,45,23.10
2006,07,23,00,46,23.10
2006,07,23,00,47,23.00
2006,07,23,00,48,22.90
2006,07,23,00,49,22.90
2006,07,23,00,50,22.90
2006,07,23,00,51,22.90
2006,07,23,00,52,22.90
2006,07,23,00,53,22.90
2006,07,23,00,54,22.90
2006,07,23,00,55,22.90
2006,07,23,00,56,22.90
2006,07,23,00,57,22.90
2006,07,23,00,58,22.90
2006,07,23,00,59,22.90
2006,07,23,01,00,22.90
2006,07,23,01,01,22.90
2006,07,23,01,02,22.90
2006,07,23,01,03,22.90
2006,07,23,01,04,22.90
2006,07,23,01,05,22.90
2006,07,23,01,06,22.90
2006,07,23,01,07,22.90
2006,07,23,01,08,22.90
2006,07,23,01,09,22.80
2006,07,23,01,10,22.80
2006,07,23,01,11,22.80
2006,07,23,01,12,22.80
2006,07,23,01,13,22.80
2006,07,23,01,14,22.80
2006,07,23,01,15,22.80
2006,07,23,01,16,22.80
2006,07,23,01,17,22.80
2006,07,23,01,18,22.80
2006,07,23,01,19,22.80
2006,07,23,01,20,22.80
2006,07,23,01,21,22.80
2006,07,23,01,22,22.80
2006,07,23,01,23,22.80
2006,07,23,01,24,22.80
2006,07,23,01,25,22.80
2006,07,23,01,26,22.80
2006,07,23,01,27,22.80
2006,07,23,01,28,22.80
2006,07,23,01,29,22.80
2006,07,23,01,30,22.80
2006,07,23,01,31,22.80
2006,07,23,01,32,22.70
2006,07,23,01,33,22.70
2006,07,23,01,34,22.70
2006,07,23,01,35,22.70
2006,07,23,01,36,22.60
2006,07,23,01,37,22.60
2006,07,23,01,38,22.60
2006,07,23,01,39,22.60
2006,07,23,01,40,22.50
2006,07,23,01,41,22.50
2006,07,23,01,42,22.40
2006,07,23,01,43,22.30
2006,07,23,01,44,22.30
2006,07,23,01,45,22.20
2006,07,23,01,46,22.20
2006,07,23,01,47,22.10
2006,07,23,01,48,22.10
2006,07,23,01,49,22.00
2006,07,23,01,50,22.00
2006,07,23,01,51,21.90
2006,07,23,01,52,21.90
2006,07,23,01,53,21.90
2006,07,23,01,54,21.80
2006,07,23,01,55,21.80
2006,07,23,01,56,21.70
2006,07,23,01,57,21.60
2006,07,23,01,58,21.60
2006,07,23,01,59,21.60
2006,07,23,02,00,21.60
2006,07,23,02,01,21.60
2006,07,23,02,02,21.60
2006,07,23,02,03,21.50
2006,07,23,02,04,21.40
2006,07,23,02,05,21.40
2006,07,23,02,06,21.30
2006,07,23,02,07,21.30
2006,07,23,02,08,21.30
2006,07,23,02,09,21.30
2006,07,23,02,10,21.30
2006,07,23,02,11,21.30
2006,07,23,02,12,21.20
2006,07,23,02,13,21.20
2006,07,23,02,14,21.20
2006,07,23,02,15,21.10
2006,07,23,02,16,21.10
2006,07,23,02,17,21.10
2006,07,23,02,18,21.00
2006,07,23,02,19,21.00
2006,07,23,02,20,21.00
2006,07,23,02,21,20.90
2006,07,23,02,22,20.90
2006,07,23,02,23,20.90
2006,07,23,02,24,20.90
2006,07,23,02,25,20.90
2006,07,23,02,26,20.90
2006,07,23,02,27,20.80
2006,07,23,02,28,20.80
2006,07,23,02,29,20.80
2006,07,23,02,30,20.70
2006,07,23,02,31,20.70
2006,07,23,02,32,20.70
2006,07,23,02,33,20.60
2006,07,23,02,34,20.60
2006,07,23,02,35,20.60
2006,07,23,02,36,20.60
2006,07,23,02,37,20.60
2006,07,23,02,38,20.60
2006,07,23,02,39,20.60
2006,07,23,02,40,20.50
2006,07,23,02,41,20.50
2006,07,23,02,42,20.50
2006,07,23,02,43,20.50
2006,07,23,02,44,20.40
2006,07,23,02,45,20.40
2006,07,23,02,46,20.40
2006,07,23,02,47,20.30
2006,07,23,02,48,20.30
2006,07,23,02,49,20.30
2006,07,23,02,50,20.30
2006,07,23,02,51,20.30
2006,07,23,02,52,20.20
2006,07,23,02,53,20.20
2006,07,23,02,54,20.20
2006,07,23,02,55,20.10
2006,07,23,02,56,20.10
2006,07,23,02,57,19.90
2006,07,23,02,58,19.90
2006,07,23,02,59,19.80
2006,07,23,03,00,19.70
2006,07,23,03,01,19.70
2006,07,23,03,02,19.60
2006,07,23,03,03,19.60
2006,07,23,03,04,19.60
2006,07,23,03,05,19.60
2006,07,23,03,06,19.50
2006,07,23,03,07,19.50
2006,07,23,03,08,19.50
2006,07,23,03,09,19.50
2006,07,23,03,10,19.40
2006,07,23,03,11,19.40
2006,07,23,03,12,19.40
2006,07,23,03,13,19.40
2006,07,23,03,14,19.40
2006,07,23,03,15,19.40
2006,07,23,03,16,19.40
2006,07,23,03,17,19.50
2006,07,23,03,18,19.50
2006,07,23,03,19,19.50
2006,07,23,03,20,19.60
2006,07,23,03,21,19.60
2006,07,23,03,22,19.60
2006,07,23,03,23,19.60
2006,07,23,03,24,19.60
2006,07,23,03,25,19.70
2006,07,23,03,26,19.70
2006,07,23,03,27,19.70
2006,07,23,03,28,19.70
2006,07,23,03,29,19.80
2006,07,23,03,30,19.80
2006,07,23,03,31,19.80
2006,07,23,03,32,19.80
2006,07,23,03,33,19.80
2006,07,23,03,34,19.90
2006,07,23,03,35,19.90
2006,07,23,03,36,19.90
2006,07,23,03,37,19.90
2006,07,23,03,38,19.90
2006,07,23,03,39,19.90
2006,07,23,03,40,19.80
2006,07,23,03,41,19.80
2006,07,23,03,42,19.80
2006,07,23,03,43,19.80
2006,07,23,03,44,19.80
2006,07,23,03,45,19.80
2006,07,23,03,46,19.80
2006,07,23,03,47,19.80
2006,07,23,03,48,19.70
2006,07,23,03,49,19.70
2006,07,23,03,50,19.70
2006,07,23,03,51,19.70
2006,07,23,03,52,19.70
2006,07,23,03,53,19.70
2006,07,23,03,54,19.70
2006,07,23,03,55,19.70
2006,07,23,03,56,19.70
2006,07,23,03,57,19.70
2006,07,23,03,58,19.70
2006,07,23,03,59,19.70
2006,07,23,04,00,19.70
2006,07,23,04,01,19.70
2006,07,23,04,02,19.70
2006,07,23,04,03,19.70
2006,07,23,04,04,19.70
2006,07,23,04,05,19.70
2006,07,23,04,06,19.70
2006,07,23,04,07,19.70
2006,07,23,04,08,19.70
2006,07,23,04,09,19.70
2006,07,23,04,10,19.70
2006,07,23,04,11,19.70
2006,07,23,04,12,19.70
2006,07,23,04,13,19.70
2006,07,23,04,14,19.80
2006,07,23,04,15,19.80
2006,07,23,04,16,19.80
2006,07,23,04,17,19.80
2006,07,23,04,18,19.80
2006,07,23,04,19,19.80
2006,07,23,04,20,19.80
2006,07,23,04,21,19.80
2006,07,23,04,22,19.90
2006,07,23,04,23,19.90
2006,07,23,04,24,19.90
2006,07,23,04,25,19.90
2006,07,23,04,26,19.90
2006,07,23,04,27,19.90
2006,07,23,04,28,19.90
2006,07,23,04,29,19.90
2006,07,23,04,30,19.90
2006,07,23,04,31,19.90
2006,07,23,04,32,19.90
2006,07,23,04,33,19.90
2006,07,23,04,34,19.90
2006,07,23,04,35,19.80
2006,07,23,04,36,19.80
2006,07,23,04,37,19.80
2006,07,23,04,38,19.80
2006,07,23,04,39,19.80
2006,07,23,04,40,19.80
2006,07,23,04,41,19.70
2006,07,23,04,42,19.70
2006,07,23,04,43,19.70
2006,07,23,04,44,19.70
2006,07,23,04,45,19.80
2006,07,23,04,46,19.80
2006,07,23,04,47,19.80
2006,07,23,04,48,19.80
2006,07,23,04,49,19.80
2006,07,23,04,50,19.80
2006,07,23,04,51,19.80
2006,07,23,04,52,19.80
2006,07,23,04,53,19.80
2006,07,23,04,54,19.80
2006,07,23,04,55,19.80
2006,07,23,04,56,19.80
2006,07,23,04,57,19.80
2006,07,23,04,58,19.80
2006,07,23,04,59,19.80
2006,07,23,05,00,19.80
2006,07,23,05,01,19.90
2006,07,23,05,02,19.90
2006,07,23,05,03,19.90
2006,07,23,05,04,19.90
2006,07,23,05,05,19.90
2006,07,23,05,06,19.90
2006,07,23,05,07,19.90
2006,07,23,05,08,19.90
2006,07,23,05,09,19.90
2006,07,23,05,10,19.90
2006,07,23,05,11,20.00
2006,07,23,05,12,20.10
2006,07,23,05,13,20.10
2006,07,23,05,14,20.10
2006,07,23,05,15,20.10
2006,07,23,05,16,20.10
2006,07,23,05,17,20.10
2006,07,23,05,18,20.20
2006,07,23,05,19,20.20
2006,07,23,05,20,20.20
2006,07,23,05,21,20.20
2006,07,23,05,22,20.20
2006,07,23,05,23,20.20
2006,07,23,05,24,20.20
2006,07,23,05,25,20.20
2006,07,23,05,26,20.20
2006,07,23,05,27,20.20
2006,07,23,05,28,20.20
2006,07,23,05,29,20.20
2006,07,23,05,30,20.20
2006,07,23,05,31,20.20
2006,07,23,05,32,20.20
2006,07,23,05,33,20.20
2006,07,23,05,34,20.20
2006,07,23,05,35,20.30
2006,07,23,05,36,20.30
2006,07,23,05,37,20.30
2006,07,23,05,38,20.30
2006,07,23,05,39,20.40
2006,07,23,05,40,20.40
2006,07,23,05,41,20.40
2006,07,23,05,42,20.40
2006,07,23,05,43,20.40
2006,07,23,05,44,20.40
2006,07,23,05,45,20.40
2006,07,23,05,46,20.50
2006,07,23,05,47,20.50
2006,07,23,05,48,20.50
2006,07,23,05,49,20.50
2006,07,23,05,50,20.60
2006,07,23,05,51,20.60
2006,07,23,05,52,20.60
2006,07,23,05,53,20.60
2006,07,23,05,54,20.60
2006,07,23,05,55,20.70
2006,07,23,05,56,20.70
2006,07,23,05,57,20.70
2006,07,23,05,58,20.70
2006,07,23,05,59,20.70
2006,07,23,06,00,20.70
2006,07,23,06,01,20.80
2006,07,23,06,02,20.80
2006,07,23,06,03,20.80
2006,07,23,06,04,20.80
2006,07,23,06,05,20.90
2006,07,23,06,06,20.90
2006,07,23,06,07,20.90
2006,07,23,06,08,20.90
2006,07,23,06,09,20.90
2006,07,23,06,10,20.90
2006,07,23,06,11,20.90
2006,07,23,06,12,20.90
2006,07,23,06,13,20.90
2006,07,23,06,14,20.80
2006,07,23,06,15,20.80
2006,07,23,06,16,20.80
2006,07,23,06,17,20.80
2006,07,23,06,18,20.80
2006,07,23,06,19,20.80
2006,07,23,06,20,20.80
2006,07,23,06,21,20.80
2006,07,23,06,22,20.80
2006,07,23,06,23,20.90
2006,07,23,06,24,20.90
2006,07,23,06,25,20.90
2006,07,23,06,26,20.90
2006,07,23,06,27,21.00
2006,07,23,06,28,21.00
2006,07,23,06,29,21.00
2006,07,23,06,30,21.10
2006,07,23,06,31,21.10
2006,07,23,06,32,21.20
2006,07,23,06,33,21.20
2006,07,23,06,34,21.30
2006,07,23,06,35,21.30
2006,07,23,06,36,21.30
2006,07,23,06,37,21.30
2006,07,23,06,38,21.30
2006,07,23,06,39,21.30
2006,07,23,06,40,21.30
2006,07,23,06,41,21.30
2006,07,23,06,42,21.30
2006,07,23,06,43,21.30
2006,07,23,06,44,21.30
2006,07,23,06,45,21.30
2006,07,23,06,46,21.30
2006,07,23,06,47,21.30
2006,07,23,06,48,21.30
2006,07,23,06,49,21.30
2006,07,23,06,50,21.30
2006,07,23,06,51,21.30
2006,07,23,06,52,21.20
2006,07,23,06,53,21.00
2006,07,23,06,54,20.90
2006,07,23,06,55,20.80
2006,07,23,06,56,20.60
2006,07,23,06,57,20.60
2006,07,23,06,58,20.50
2006,07,23,06,59,20.50
2006,07,23,07,00,20.50
2006,07,23,07,01,20.40
2006,07,23,07,02,20.40
2006,07,23,07,03,20.40
2006,07,23,07,04,20.30
2006,07,23,07,05,20.30
2006,07,23,07,06,20.30
2006,07,23,07,07,20.40
2006,07,23,07,08,20.40
2006,07,23,07,09,20.40
2006,07,23,07,10,20.40
2006,07,23,07,11,20.50
2006,07,23,07,12,20.50
2006,07,23,07,13,20.50
2006,07,23,07,14,20.60
2006,07,23,07,15,20.60
2006,07,23,07,16,20.70
2006,07,23,07,17,20.80
2006,07,23,07,18,20.90
2006,07,23,07,19,21.00
2006,07,23,07,20,21.10
2006,07,23,07,21,21.10
2006,07,23,07,22,21.20
2006,07,23,07,23,21.20
2006,07,23,07,24,21.20
2006,07,23,07,25,21.10
2006,07,23,07,26,21.10
2006,07,23,07,27,21.10
2006,07,23,07,28,21.10
2006,07,23,07,29,21.10
2006,07,23,07,30,21.10
2006,07,23,07,31,21.20
2006,07,23,07,32,21.20
2006,07,23,07,33,21.10
2006,07,23,07,34,21.10
2006,07,23,07,35,21.10
2006,07,23,07,36,21.10
2006,07,23,07,37,21.10
2006,07,23,07,38,21.10
2006,07,23,07,39,21.10
2006,07,23,07,40,21.10
2006,07,23,07,41,21.20
2006,07,23,07,42,21.20
2006,07,23,07,43,21.20
2006,07,23,07,44,21.30
2006,07,23,07,45,21.30
2006,07,23,07,46,21.30
2006,07,23,07,47,21.40
2006,07,23,07,48,21.50
2006,07,23,07,49,21.60
2006,07,23,07,50,21.70
2006,07,23,07,51,21.80
2006,07,23,07,52,21.80
2006,07,23,07,53,21.90
2006,07,23,07,54,21.90
2006,07,23,07,55,22.00
2006,07,23,07,56,22.00
2006,07,23,07,57,22.00
2006,07,23,07,58,22.00
2006,07,23,07,59,22.00
2006,07,23,08,00,22.00
2006,07,23,08,01,22.10
2006,07,23,08,02,22.10
2006,07,23,08,03,22.10
2006,07,23,08,04,22.20
2006,07,23,08,05,22.20
2006,07,23,08,06,22.30
2006,07,23,08,07,22.30
2006,07,23,08,08,22.40
2006,07,23,08,09,22.40
2006,07,23,08,10,22.40
2006,07,23,08,11,22.50
2006,07,23,08,12,22.50
2006,07,23,08,13,22.50
2006,07,23,08,14,22.50
2006,07,23,08,15,22.60
2006,07,23,08,16,22.60
2006,07,23,08,17,22.70
2006,07,23,08,18,22.80
2006,07,23,08,19,22.80
2006,07,23,08,20,22.90
2006,07,23,08,21,23.00
2006,07,23,08,22,23.20
2006,07,23,08,23,23.30
2006,07,23,08,24,23.40
2006,07,23,08,25,23.60
2006,07,23,08,26,23.70
2006,07,23,08,27,23.50
2006,07,23,08,28,23.30
2006,07,23,08,29,23.10
2006,07,23,08,30,22.90
2006,07,23,08,31,22.70
2006,07,23,08,32,22.50
2006,07,23,08,33,22.40
2006,07,23,08,34,22.30
2006,07,23,08,35,22.20
2006,07,23,08,36,22.20
2006,07,23,08,37,22.10
2006,07,23,08,38,22.00
2006,07,23,08,39,21.90
2006,07,23,08,40,21.80
2006,07,23,08,41,21.80
2006,07,23,08,42,21.70
2006,07,23,08,43,21.70
2006,07,23,08,44,21.70
2006,07,23,08,45,21.70
2006,07,23,08,46,21.60
2006,07,23,08,47,21.60
2006,07,23,08,48,21.60
2006,07,23,08,49,21.60
2006,07,23,08,50,21.50
2006,07,23,08,51,21.40
2006,07,23,08,52,21.40
2006,07,23,08,53,21.60
2006,07,23,08,54,21.60
2006,07,23,08,55,21.70
2006,07,23,08,56,21.80
2006,07,23,08,57,21.90
2006,07,23,08,58,22.10
2006,07,23,08,59,22.20
2006,07,23,09,00,22.40
2006,07,23,09,01,22.60
2006,07,23,09,02,22.80
2006,07,23,09,03,22.90
2006,07,23,09,04,22.90
2006,07,23,09,05,22.90
2006,07,23,09,06,22.90
2006,07,23,09,07,22.90
2006,07,23,09,08,22.70
2006,07,23,09,09,22.60
2006,07,23,09,10,22.40
2006,07,23,09,11,22.30
2006,07,23,09,12,22.20
2006,07,23,09,13,22.20
2006,07,23,09,14,22.10
2006,07,23,09,15,22.20
2006,07,23,09,16,22.30
2006,07,23,09,17,22.30
2006,07,23,09,18,22.40
2006,07,23,09,19,22.50
2006,07,23,09,20,22.60
2006,07,23,09,21,22.70
2006,07,23,09,22,22.80
2006,07,23,09,23,23.00
2006,07,23,09,24,23.30
2006,07,23,09,25,23.50
2006,07,23,09,26,23.80
2006,07,23,09,27,24.10
2006,07,23,09,28,24.30
2006,07,23,09,29,24.50
2006,07,23,09,30,24.70
2006,07,23,09,31,24.90
2006,07,23,09,32,25.00
2006,07,23,09,33,25.10
2006,07,23,09,34,25.10
2006,07,23,09,35,25.20
2006,07,23,09,36,25.30
2006,07,23,09,37,25.40
2006,07,23,09,38,25.50
2006,07,23,09,39,25.40
2006,07,23,09,40,25.50
2006,07,23,09,41,25.50
2006,07,23,09,42,25.60
2006,07,23,09,43,25.60
2006,07,23,09,44,25.70
2006,07,23,09,45,25.60
2006,07,23,09,46,25.60
2006,07,23,09,47,25.60
2006,07,23,09,48,25.60
2006,07,23,09,49,25.50
2006,07,23,09,50,25.50
2006,07,23,09,51,25.40
2006,07,23,09,52,25.40
2006,07,23,09,53,25.50
2006,07,23,09,54,25.50
2006,07,23,09,55,25.50
2006,07,23,09,56,25.50
2006,07,23,09,57,25.40
2006,07,23,09,58,25.50
2006,07,23,09,59,25.60
2006,07,23,10,00,25.70
2006,07,23,10,01,25.60
2006,07,23,10,02,25.60
2006,07,23,10,03,25.70
2006,07,23,10,04,25.70
2006,07,23,10,05,25.80
2006,07,23,10,06,25.80
2006,07,23,10,07,25.80
2006,07,23,10,08,25.80
2006,07,23,10,09,25.80
2006,07,23,10,10,25.80
2006,07,23,10,11,25.70
2006,07,23,10,12,25.60
2006,07,23,10,13,25.60
2006,07,23,10,14,25.70
2006,07,23,10,15,25.70
2006,07,23,10,16,25.70
2006,07,23,10,17,25.60
2006,07,23,10,18,25.60
2006,07,23,10,19,25.70
2006,07,23,10,20,25.70
2006,07,23,10,21,25.80
2006,07,23,10,22,25.90
2006,07,23,10,23,25.90
2006,07,23,10,24,25.80
2006,07,23,10,25,25.80
2006,07,23,10,26,25.80
2006,07,23,10,27,25.90
2006,07,23,10,28,25.90
2006,07,23,10,29,26.00
2006,07,23,10,30,26.00
2006,07,23,10,31,26.10
2006,07,23,10,32,26.20
2006,07,23,10,33,26.30
2006,07,23,10,34,26.30
2006,07,23,10,35,26.40
2006,07,23,10,36,26.40
2006,07,23,10,37,26.40
2006,07,23,10,38,26.50
2006,07,23,10,39,26.40
2006,07,23,10,40,26.40
2006,07,23,10,41,26.30
2006,07,23,10,42,26.30
2006,07,23,10,43,26.20
2006,07,23,10,44,26.20
2006,07,23,10,45,26.20
2006,07,23,10,46,26.20
2006,07,23,10,47,26.30
2006,07,23,10,48,26.30
2006,07,23,10,49,26.30
2006,07,23,10,50,26.30
2006,07,23,10,51,26.30
2006,07,23,10,52,26.40
2006,07,23,10,53,26.40
2006,07,23,10,54,26.40
2006,07,23,10,55,26.60
2006,07,23,10,56,26.60
2006,07,23,10,57,26.60
2006,07,23,10,58,26.60
2006,07,23,10,59,26.60
2006,07,23,11,00,26.60
2006,07,23,11,01,26.60
2006,07,23,11,02,26.70
2006,07,23,11,03,26.80
2006,07,23,11,04,26.80
2006,07,23,11,05,26.90
2006,07,23,11,06,26.90
2006,07,23,11,07,26.80
2006,07,23,11,08,26.80
2006,07,23,11,09,26.80
2006,07,23,11,10,26.80
2006,07,23,11,11,26.90
2006,07,23,11,12,26.90
2006,07,23,11,13,26.80
2006,07,23,11,14,26.90
2006,07,23,11,15,27.00
2006,07,23,11,16,27.20
2006,07,23,11,17,27.30
2006,07,23,11,18,27.30
2006,07,23,11,19,27.30
2006,07,23,11,20,27.30
2006,07,23,11,21,27.30
2006,07,23,11,22,27.30
2006,07,23,11,23,27.30
2006,07,23,11,24,27.30
2006,07,23,11,25,27.30
2006,07,23,11,26,27.30
2006,07,23,11,27,27.30
2006,07,23,11,28,27.40
2006,07,23,11,29,27.40
2006,07,23,11,30,27.60
2006,07,23,11,31,27.60
2006,07,23,11,32,27.70
2006,07,23,11,33,27.70
2006,07,23,11,34,27.60
2006,07,23,11,35,27.70
2006,07,23,11,36,27.60
2006,07,23,11,37,27.70
2006,07,23,11,38,27.70
2006,07,23,11,39,27.60
2006,07,23,11,40,27.30
2006,07,23,11,41,27.00
2006,07,23,11,42,26.60
2006,07,23,11,43,26.40
2006,07,23,11,44,26.20
2006,07,23,11,45,26.00
2006,07,23,11,46,26.00
2006,07,23,11,47,26.20
2006,07,23,11,48,26.20
2006,07,23,11,49,26.20
2006,07,23,11,50,26.30
2006,07,23,11,51,26.20
2006,07,23,11,52,26.00
2006,07,23,11,53,25.80
2006,07,23,11,54,25.60
2006,07,23,11,55,25.40
2006,07,23,11,56,25.20
2006,07,23,11,57,25.00
2006,07,23,11,58,25.00
2006,07,23,11,59,25.00
2006,07,23,12,00,24.90
2006,07,23,12,01,24.90
2006,07,23,12,02,24.80
2006,07,23,12,03,24.70
2006,07,23,12,04,24.70
2006,07,23,12,05,24.60
2006,07,23,12,06,24.50
2006,07,23,12,07,24.40
2006,07,23,12,08,24.50
2006,07,23,12,09,24.40
2006,07,23,12,10,24.30
2006,07,23,12,11,24.20
2006,07,23,12,12,24.10
2006,07,23,12,13,24.10
2006,07,23,12,14,24.10
2006,07,23,12,15,24.10
2006,07,23,12,16,24.10
2006,07,23,12,17,24.10
2006,07,23,12,18,24.10
2006,07,23,12,19,24.10
2006,07,23,12,20,24.00
2006,07,23,12,21,24.00
2006,07,23,12,22,24.10
2006,07,23,12,23,24.10
2006,07,23,12,24,24.10
2006,07,23,12,25,24.10
2006,07,23,12,26,24.10
2006,07,23,12,27,24.30
2006,07,23,12,28,24.30
2006,07,23,12,29,24.40
2006,07,23,12,30,24.50
2006,07,23,12,31,24.60
2006,07,23,12,32,24.70
2006,07,23,12,33,24.80
2006,07,23,12,34,24.90
2006,07,23,12,35,24.90
2006,07,23,12,36,25.10
2006,07,23,12,37,25.20
2006,07,23,12,38,25.30
2006,07,23,12,39,25.30
2006,07,23,12,40,25.30
2006,07,23,12,41,25.30
2006,07,23,12,42,25.20
2006,07,23,12,43,25.20
2006,07,23,12,44,25.30
2006,07,23,12,45,25.40
2006,07,23,12,46,25.30
2006,07,23,12,47,25.20
2006,07,23,12,48,25.20
2006,07,23,12,49,25.30
2006,07,23,12,50,25.30
2006,07,23,12,51,25.30
2006,07,23,12,52,25.30
2006,07,23,12,53,25.30
2006,07,23,12,54,25.30
2006,07,23,12,55,25.30
2006,07,23,12,56,25.30
2006,07,23,12,57,25.40
2006,07,23,12,58,25.40
2006,07,23,12,59,25.40
2006,07,23,13,00,25.30
2006,07,23,13,01,25.40
2006,07,23,13,02,25.50
2006,07,23,13,03,25.60
2006,07,23,13,04,25.60
2006,07,23,13,05,25.60
2006,07,23,13,06,25.60
2006,07,23,13,07,25.60
2006,07,23,13,08,25.60
2006,07,23,13,09,25.60
2006,07,23,13,10,25.70
2006,07,23,13,11,25.80
2006,07,23,13,12,25.90
2006,07,23,13,13,25.90
2006,07,23,13,14,26.00
2006,07,23,13,15,26.00
2006,07,23,13,16,26.10
2006,07,23,13,17,26.10
2006,07,23,13,18,26.20
2006,07,23,13,19,26.20
2006,07,23,13,20,26.30
2006,07,23,13,21,26.30
2006,07,23,13,22,26.40
2006,07,23,13,23,26.40
2006,07,23,13,24,26.40
2006,07,23,13,25,26.40
2006,07,23,13,26,26.40
2006,07,23,13,27,26.30
2006,07,23,13,28,26.30
2006,07,23,13,29,26.30
2006,07,23,13,30,26.30
2006,07,23,13,31,26.20
2006,07,23,13,32,26.10
2006,07,23,13,33,25.90
2006,07,23,13,34,25.80
2006,07,23,13,35,25.70
2006,07,23,13,36,25.60
2006,07,23,13,37,25.70
2006,07,23,13,38,25.60
2006,07,23,13,39,25.60
2006,07,23,13,40,25.60
2006,07,23,13,41,25.60
2006,07,23,13,42,25.60
2006,07,23,13,43,25.60
2006,07,23,13,44,25.60
2006,07,23,13,45,25.60
2006,07,23,13,46,25.70
2006,07,23,13,47,25.70
2006,07,23,13,48,25.70
2006,07,23,13,49,25.70
2006,07,23,13,50,25.70
2006,07,23,13,51,25.80
2006,07,23,13,52,25.90
2006,07,23,13,53,26.00
2006,07,23,13,54,26.10
2006,07,23,13,55,26.30
2006,07,23,13,56,26.30
2006,07,23,13,57,26.30
2006,07,23,13,58,26.30
2006,07,23,13,59,26.40
2006,07,23,14,00,26.60
2006,07,23,14,01,26.60
2006,07,23,14,02,26.60
2006,07,23,14,03,26.60
2006,07,23,14,04,26.60
2006,07,23,14,05,26.50
2006,07,23,14,06,26.50
2006,07,23,14,07,26.60
2006,07,23,14,08,26.80
2006,07,23,14,09,26.80
2006,07,23,14,10,26.90
2006,07,23,14,11,26.90
2006,07,23,14,12,26.90
2006,07,23,14,13,26.90
2006,07,23,14,14,27.00
2006,07,23,14,15,26.90
2006,07,23,14,16,26.90
2006,07,23,14,17,26.80
2006,07,23,14,18,26.70
2006,07,23,14,19,26.70
2006,07,23,14,20,26.70
2006,07,23,14,21,26.80
2006,07,23,14,22,26.80
2006,07,23,14,23,26.70
2006,07,23,14,24,26.60
2006,07,23,14,25,26.60
2006,07,23,14,26,26.60
2006,07,23,14,27,26.70
2006,07,23,14,28,26.70
2006,07,23,14,29,26.90
2006,07,23,14,30,27.00
2006,07,23,14,31,27.10
2006,07,23,14,32,27.00
2006,07,23,14,33,27.00
2006,07,23,14,34,26.80
2006,07,23,14,35,26.80
2006,07,23,14,36,26.70
2006,07,23,14,37,26.70
2006,07,23,14,38,26.80
2006,07,23,14,39,27.00
2006,07,23,14,40,27.10
2006,07,23,14,41,27.10
2006,07,23,14,42,27.20
2006,07,23,14,43,27.30
2006,07,23,14,44,27.20
2006,07,23,14,45,27.30
2006,07,23,14,46,27.30
2006,07,23,14,47,27.30
2006,07,23,14,48,27.40
2006,07,23,14,49,27.40
2006,07,23,14,50,27.30
2006,07,23,14,51,27.30
2006,07,23,14,52,27.40
2006,07,23,14,53,27.50
2006,07,23,14,54,27.60
2006,07,23,14,55,27.60
2006,07,23,14,56,27.70
2006,07,23,14,57,27.70
2006,07,23,14,58,27.70
2006,07,23,14,59,27.60
2006,07,23,15,00,27.50
2006,07,23,15,01,27.40
2006,07,23,15,02,27.30
2006,07,23,15,03,27.30
2006,07,23,15,04,27.30
2006,07,23,15,05,27.20
2006,07,23,15,06,27.10
2006,07,23,15,07,27.10
2006,07,23,15,08,27.10
2006,07,23,15,09,27.10
2006,07,23,15,10,26.90
2006,07,23,15,11,26.80
2006,07,23,15,12,26.70
2006,07,23,15,13,26.50
2006,07,23,15,14,26.40
2006,07,23,15,15,26.30
2006,07,23,15,16,26.30
2006,07,23,15,17,26.40
2006,07,23,15,18,26.40
2006,07,23,15,19,26.40
2006,07,23,15,20,26.40
2006,07,23,15,21,26.40
2006,07,23,15,22,26.40
2006,07,23,15,23,26.30
2006,07,23,15,24,26.20
2006,07,23,15,25,26.30
2006,07,23,15,26,26.40
2006,07,23,15,27,26.40
2006,07,23,15,28,26.50
2006,07,23,15,29,26.60
2006,07,23,15,30,26.60
2006,07,23,15,31,26.60
2006,07,23,15,32,26.60
2006,07,23,15,33,26.60
2006,07,23,15,34,26.60
2006,07,23,15,35,26.60
2006,07,23,15,36,26.60
2006,07,23,15,37,26.50
2006,07,23,15,38,26.40
2006,07,23,15,39,26.40
2006,07,23,15,40,26.30
2006,07,23,15,41,26.40
2006,07,23,15,42,26.40
2006,07,23,15,43,26.50
2006,07,23,15,44,26.60
2006,07,23,15,45,26.70
2006,07,23,15,46,26.90
2006,07,23,15,47,27.00
2006,07,23,15,48,27.10
2006,07,23,15,49,27.20
2006,07,23,15,50,27.30
2006,07,23,15,51,27.30
2006,07,23,15,52,27.30
2006,07,23,15,53,27.30
2006,07,23,15,54,27.30
2006,07,23,15,55,27.20
2006,07,23,15,56,27.30
2006,07,23,15,57,27.20
2006,07,23,15,58,27.20
2006,07,23,15,59,27.30
2006,07,23,16,00,27.20
2006,07,23,16,01,27.00
2006,07,23,16,02,26.80
2006,07,23,16,03,26.60
2006,07,23,16,04,26.50
2006,07,23,16,05,26.30
2006,07,23,16,06,26.20
2006,07,23,16,07,26.10
2006,07,23,16,08,26.10
2006,07,23,16,09,26.10
2006,07,23,16,10,26.00
2006,07,23,16,11,26.00
2006,07,23,16,12,26.00
2006,07,23,16,13,25.90
2006,07,23,16,14,25.90
2006,07,23,16,15,25.80
2006,07,23,16,16,25.80
2006,07,23,16,17,25.80
2006,07,23,16,18,25.80
2006,07,23,16,19,25.80
2006,07,23,16,20,25.90
2006,07,23,16,21,25.90
2006,07,23,16,22,26.10
2006,07,23,16,23,26.20
2006,07,23,16,24,26.30
2006,07,23,16,25,26.40
2006,07,23,16,26,26.50
2006,07,23,16,27,26.60
2006,07,23,16,28,26.60
2006,07,23,16,29,26.60
2006,07,23,16,30,26.60
2006,07,23,16,31,26.60
2006,07,23,16,32,26.60
2006,07,23,16,33,26.70
2006,07,23,16,34,26.70
2006,07,23,16,35,26.80
2006,07,23,16,36,26.80
2006,07,23,16,37,26.80
2006,07,23,16,38,26.80
2006,07,23,16,39,26.90
2006,07,23,16,40,27.00
2006,07,23,16,41,27.20
2006,07,23,16,42,27.30
2006,07,23,16,43,27.30
2006,07,23,16,44,27.30
2006,07,23,16,45,27.30
2006,07,23,16,46,27.30
2006,07,23,16,47,27.30
2006,07,23,16,48,27.30
2006,07,23,16,49,27.30
2006,07,23,16,50,27.20
2006,07,23,16,51,27.20
2006,07,23,16,52,27.10
2006,07,23,16,53,27.20
2006,07,23,16,54,27.30
2006,07,23,16,55,27.30
2006,07,23,16,56,27.30
2006,07,23,16,57,27.30
2006,07,23,16,58,27.30
2006,07,23,16,59,27.30
2006,07,23,17,00,27.30
2006,07,23,17,01,27.30
2006,07,23,17,02,27.30
2006,07,23,17,03,27.30
2006,07,23,17,04,27.30
2006,07,23,17,05,27.30
2006,07,23,17,06,27.30
2006,07,23,17,07,27.30
2006,07,23,17,08,27.40
2006,07,23,17,09,27.50
2006,07,23,17,10,27.60
2006,07,23,17,11,27.70
2006,07,23,17,12,27.70
2006,07,23,17,13,27.70
2006,07,23,17,14,27.50
2006,07,23,17,15,27.40
2006,07,23,17,16,27.40
2006,07,23,17,17,27.40
2006,07,23,17,18,27.40
2006,07,23,17,19,27.40